Hourly Weather Allaman

Today, 29 November, Sunday

Time Temperature Precipitation Wind Pressure Humidity
00:00 +2°C° 0 mm 2 mps 717 mmHg 84%
01:00 +2°C° 0 mm 2 mps 717 mmHg 86%
02:00 +2°C° 0 mm 2 mps 716 mmHg 87%
03:00 +2°C° 0 mm 2 mps 716 mmHg 88%
04:00 +2°C° 0 mm 2 mps 716 mmHg 88%
05:00 +2°C° 0 mm 2 mps 717 mmHg 89%
06:00 +2°C° 0 mm 2 mps 717 mmHg 89%
07:00 +2°C° 0 mm 2 mps 717 mmHg 86%
08:00 +3°C° 0 mm 2 mps 717 mmHg 83%
09:00 +4°C° 0 mm 2 mps 718 mmHg 80%
10:00 +5°C° 0 mm 2 mps 718 mmHg 76%
11:00 +6°C° 0 mm 2 mps 718 mmHg 72%
12:00 +7°C° 0 mm 2 mps 718 mmHg 69%
13:00 +6°C° 0 mm 2 mps 718 mmHg 72%
14:00 +5°C° 0 mm 2 mps 718 mmHg 76%
15:00 +5°C° 0 mm 2 mps 718 mmHg 79%
16:00 +3°C° 0 mm 2 mps 719 mmHg 82%
17:00 +2°C° 0 mm 2 mps 719 mmHg 85%
18:00 +1°C° 0 mm 2 mps 719 mmHg 88%
19:00 +1°C° 0 mm 2 mps 719 mmHg 88%
20:00 +1°C° 0 mm 2 mps 720 mmHg 88%
21:00 +1°C° 0 mm 2 mps 720 mmHg 87%
22:00 +1°C° 0 mm 2 mps 720 mmHg 88%
23:00 +1°C° 0 mm 2 mps 720 mmHg 88%

Tomorrow, 30 November, Monday

Time Temperature Precipitation Wind Pressure Humidity
00:00 +1°C° 0 mm 2 mps 721 mmHg 88%
01:00 +1°C° 0 mm 2 mps 721 mmHg 88%
02:00 +1°C° 0 mm 2 mps 721 mmHg 88%
03:00 +2°C° 0 mm 1 mps 721 mmHg 88%
04:00 +2°C° 0 mm 1 mps 721 mmHg 88%
05:00 +2°C° 0 mm 1 mps 721 mmHg 87%
06:00 +2°C° 0 mm 1 mps 721 mmHg 87%
07:00 +2°C° 0 mm 1 mps 722 mmHg 82%
08:00 +3°C° 0 mm 1 mps 722 mmHg 78%
09:00 +4°C° 0 mm 1 mps 722 mmHg 73%
10:00 +5°C° 0 mm 1 mps 722 mmHg 69%
11:00 +6°C° 0 mm 1 mps 722 mmHg 65%
12:00 +7°C° 0 mm 1 mps 722 mmHg 61%
13:00 +6°C° 0 mm 1 mps 722 mmHg 67%
14:00 +5°C° 0 mm 0 mps 722 mmHg 72%
15:00 +4°C° 0 mm 0 mps 722 mmHg 78%
16:00 +3°C° 0 mm 0 mps 722 mmHg 81%
17:00 +2°C° 0 mm 0 mps 722 mmHg 83%
18:00 +1°C° 0 mm 0 mps 722 mmHg 86%
19:00 +1°C° 0 mm 0 mps 722 mmHg 83%
20:00 +1°C° 0 mm 0 mps 722 mmHg 80%
21:00 +1°C° 0 mm 0 mps 722 mmHg 78%
22:00 +1°C° 0 mm 0 mps 722 mmHg 75%
23:00 +2°C° 0 mm 1 mps 722 mmHg 73%

Day after tomorrow, 1 December, Tuesday

Time Temperature Precipitation Wind Pressure Humidity
00:00 +2°C° 0 mm 1 mps 722 mmHg 70%
01:00 +3°C° 0 mm 1 mps 721 mmHg 69%
02:00 +3°C° 0 mm 1 mps 721 mmHg 67%
03:00 +2°C° 0 mm 2 mps 721 mmHg 66%
04:00 +2°C° 0.4 mm 2 mps 720 mmHg 75%
05:00 +2°C° 0.4 mm 2 mps 720 mmHg 84%
06:00 +2°C° 0.4 mm 2 mps 719 mmHg 93%
07:00 +3°C° 0.4 mm 2 mps 719 mmHg 92%
08:00 +2°C° 0.4 mm 3 mps 718 mmHg 90%
09:00 +3°C° 0.4 mm 3 mps 717 mmHg 89%
10:00 +3°C° 1.1 mm 3 mps 717 mmHg 90%
11:00 +3°C° 1.1 mm 3 mps 716 mmHg 92%
12:00 +3°C° 1.1 mm 3 mps 716 mmHg 93%
13:00 +3°C° 1.5 mm 3 mps 715 mmHg 94%
14:00 +4°C° 1.5 mm 2 mps 715 mmHg 96%
15:00 +4°C° 1.5 mm 1 mps 715 mmHg 98%
16:00 +4°C° 0.3 mm 1 mps 715 mmHg 97%
17:00 +4°C° 0.3 mm 1 mps 715 mmHg 97%
18:00 +3°C° 0.3 mm 1 mps 715 mmHg 96%
19:00 +3°C° 0.2 mm 1 mps 715 mmHg 96%
20:00 +3°C° 0.2 mm 1 mps 715 mmHg 95%
21:00 +3°C° 0.2 mm 1 mps 715 mmHg 95%
22:00 +2°C° 0 mm 1 mps 715 mmHg 95%
23:00 +2°C° 0 mm 1 mps 715 mmHg 94%

2 December, Wednesday

Time Temperature Precipitation Wind Pressure Humidity
00:00 +1°C° 0 mm 2 mps 715 mmHg 94%
01:00 +1°C° 0 mm 2 mps 715 mmHg 94%
02:00 +1°C° 0 mm 2 mps 715 mmHg 94%
03:00 +1°C° 0 mm 2 mps 715 mmHg 94%
04:00 0°C° 0 mm 3 mps 715 mmHg 94%
05:00 0°C° 0 mm 3 mps 715 mmHg 94%
06:00 +1°C° 0 mm 3 mps 715 mmHg 94%
07:00 +1°C° 0 mm 3 mps 715 mmHg 93%
08:00 +2°C° 0 mm 3 mps 715 mmHg 92%
09:00 +2°C° 0 mm 3 mps 715 mmHg 91%
10:00 +2°C° 0 mm 3 mps 715 mmHg 90%
11:00 +3°C° 0 mm 4 mps 714 mmHg 89%
12:00 +3°C° 0 mm 4 mps 714 mmHg 88%
13:00 +3°C° 0 mm 4 mps 714 mmHg 89%
14:00 +2°C° 0 mm 3 mps 714 mmHg 90%
15:00 +2°C° 0 mm 3 mps 713 mmHg 91%
16:00 +1°C° 0 mm 3 mps 714 mmHg 92%
17:00 +1°C° 0 mm 3 mps 714 mmHg 93%
18:00 0°C° 0 mm 3 mps 714 mmHg 94%
19:00 +1°C° 0 mm 2 mps 714 mmHg 94%
20:00 -1°C° 0 mm 2 mps 714 mmHg 94%
21:00 -1°C° 0 mm 2 mps 714 mmHg 94%
22:00 -2°C° 0 mm 2 mps 714 mmHg 93%
23:00 -2°C° 0 mm 2 mps 713 mmHg 93%

3 December, Thursday

Time Temperature Precipitation Wind Pressure Humidity
00:00 -2°C° 0 mm 2 mps 713 mmHg 92%
01:00 -2°C° 0 mm 2 mps 713 mmHg 92%
02:00 -2°C° 0 mm 2 mps 712 mmHg 92%
03:00 -2°C° 0 mm 2 mps 712 mmHg 92%
04:00 -2°C° 0 mm 2 mps 711 mmHg 92%
05:00 -2°C° 0 mm 2 mps 711 mmHg 93%
06:00 -2°C° 0 mm 2 mps 711 mmHg 93%
07:00 -1°C° 0 mm 2 mps 710 mmHg 92%
08:00 -1°C° 0 mm 2 mps 710 mmHg 90%
09:00 +1°C° 0 mm 2 mps 710 mmHg 89%
10:00 +3°C° 0 mm 1 mps 709 mmHg 87%
11:00 +3°C° 0 mm 1 mps 708 mmHg 85%
12:00 +4°C° 0 mm 1 mps 708 mmHg 83%
13:00 +4°C° 0 mm 1 mps 707 mmHg 84%
14:00 +3°C° 0 mm 1 mps 707 mmHg 86%
15:00 +2°C° 0 mm 0 mps 707 mmHg 88%
16:00 +2°C° 0 mm 1 mps 706 mmHg 89%
17:00 +1°C° 0 mm 1 mps 706 mmHg 91%
18:00 0°C° 0 mm 1 mps 706 mmHg 93%
19:00 0°C° 0 mm 1 mps 705 mmHg 92%
20:00 0°C° 0 mm 1 mps 705 mmHg 92%
21:00 0°C° 0 mm 1 mps 705 mmHg 92%
22:00 0°C° 0 mm 1 mps 704 mmHg 92%
23:00 0°C° 0 mm 1 mps 704 mmHg 92%

4 December, Friday

Time Temperature Precipitation Wind Pressure Humidity
00:00 +1°C° 0 mm 1 mps 703 mmHg 91%
01:00 +1°C° 0 mm 1 mps 703 mmHg 92%
02:00 +1°C° 0 mm 1 mps 702 mmHg 92%
03:00 +1°C° 0 mm 1 mps 702 mmHg 92%
04:00 +2°C° 0 mm 1 mps 701 mmHg 92%
05:00 +2°C° 0 mm 1 mps 701 mmHg 91%
06:00 +2°C° 0 mm 1 mps 701 mmHg 91%
07:00 +3°C° 0 mm 1 mps 701 mmHg 90%
08:00 +4°C° 0 mm 1 mps 700 mmHg 89%
09:00 +4°C° 0 mm 1 mps 700 mmHg 88%
10:00 +5°C° 0 mm 1 mps 700 mmHg 87%
11:00 +4°C° 0 mm 2 mps 699 mmHg 86%
12:00 +5°C° 0 mm 2 mps 698 mmHg 85%
13:00 +5°C° 0.1 mm 2 mps 698 mmHg 87%
14:00 +4°C° 0.1 mm 2 mps 697 mmHg 88%
15:00 +4°C° 0.1 mm 2 mps 697 mmHg 90%
16:00 +3°C° 0.3 mm 2 mps 697 mmHg 92%
17:00 +3°C° 0.3 mm 2 mps 697 mmHg 93%
18:00 +4°C° 0.3 mm 1 mps 697 mmHg 95%
19:00 +2°C° 1.2 mm 3 mps 698 mmHg 95%
20:00 +1°C° 1.2 mm 4 mps 699 mmHg 95%
21:00 +1°C° 1.2 mm 5 mps 699 mmHg 95%
22:00 0°C° 0.2 mm 5 mps 700 mmHg 95%
23:00 0°C° 0.2 mm 5 mps 700 mmHg 94%
Show more